Temp
-18 -18 -19 -19 -19 -19 -19 -19 -20 -20 -20 -20 -20 -20 -20 -19 -20 -20 -19 -18 -18 -18 -18 -18 -17 -17 -17 -17 -17 -17 -17 -17 -17 -16 -15 -15 -15 -15 -15 -14 -14 -14 -14 -13
-18 -19 -19 -19 -19 -20 -20 -20 -20 -20 -20 -20 -20 -20 -20 -20 -20 -20 -19 -19 -18 -18 -18 -18 -18 -18 -18 -18 -18 -18 -18 -17 -17 -17 -16 -16 -15 -15 -15 -14 -14 -14 -13 -14
-18 -19 -19 -19 -20 -20 -20 -20 -20 -20 -20 -20 -20 -20 -20 -20 -20 -20 -20 -20 -19 -19 -19 -18 -18 -18 -18 -18 -18 -18 -18 -18 -17 -17 -17 -16 -16 -16 -15 -15 -15 -14 -13 -14
-19 -19 -19 -20 -20 -20 -20 -20 -21 -21 -21 -21 -21 -20 -20 -20 -20 -20 -20 -20 -20 -20 -19 -19 -19 -18 -18 -18 -18 -18 -18 -18 -18 -17 -17 -16 -16 -16 -16 -15 -15 -14 -14 -14
-19 -19 -20 -20 -20 -21 -21 -21 -21 -21 -21 -21 -21 -21 -20 -20 -20 -20 -20 -20 -20 -20 -20 -20 -20 -20 -19 -19 -18 -19 -19 -18 -18 -18 -18 -17 -17 -16 -16 -16 -15 -15 -15 -15
-20 -20 -20 -21 -21 -21 -21 -21 -22 -22 -22 -21 -21 -21 -20 -20 -21 -20 -20 -20 -20 -20 -20 -20 -20 -20 -20 -20 -19 -19 -19 -19 -18 -18 -18 -18 -17 -17 -16 -16 -16 -15 -15 -15
-20 -20 -21 -21 -21 -21 -21 -22 -22 -22 -21 -21 -21 -21 -21 -21 -21 -21 -20 -20 -20 -20 -20 -20 -20 -20 -20 -20 -21 -20 -19 -20 -19 -19 -19 -18 -18 -17 -17 -17 -16 -16 -16 -16
-20 -20 -21 -21 -22 -22 -22 -22 -22 -22 -22 -22 -21 -21 -20 -21 -21 -21 -21 -21 -20 -20 -20 -20 -20 -20 -20 -20 -20 -20 -21 -20 -20 -19 -19 -19 -19 -18 -18 -17 -17 -16 -16 -16
-22 -21 -22 -22 -22 -23 -22 -22 -23 -23 -22 -22 -22 -21 -21 -21 -21 -21 -21 -21 -21 -21 -20 -20 -20 -20 -20 -20 -21 -21 -20 -21 -21 -20 -19 -19 -19 -19 -18 -18 -17 -17 -17 -16
-23 -23 -23 -23 -23 -23 -23 -23 -23 -23 -23 -23 -22 -22 -21 -21 -21 -21 -22 -22 -22 -21 -21 -21 -21 -21 -21 -21 -21 -21 -21 -21 -20 -21 -21 -20 -19 -19 -19 -19 -18 -18 -17 -17
-24 -24 -23 -23 -23 -23 -24 -24 -24 -24 -24 -24 -23 -23 -22 -22 -22 -22 -22 -22 -22 -22 -22 -21 -21 -21 -21 -21 -21 -21 -21 -21 -21 -21 -21 -21 -20 -20 -19 -19 -19 -18 -18 -18
-24 -24 -23 -24 -24 -24 -24 -24 -24 -25 -24 -25 -25 -22 -23 -23 -23 -23 -23 -23 -23 -23 -23 -23 -22 -22 -22 -21 -21 -21 -21 -21 -21 -21 -21 -21 -21 -21 -20 -19 -19 -19 -19 -19
-24 -24 -24 -24 -24 -24 -25 -25 -25 -26 -25 -25 -26 -23 -23 -24 -25 -25 -26 -26 -25 -24 -24 -24 -23 -23 -22 -22 -22 -22 -21 -21 -21 -21 -21 -21 -21 -21 -20 -20 -20 -19 -19 -19
-25 -25 -25 -25 -25 -25 -25 -25 -26 -27 -27 -26 -26 -26 -26 -26 -26 -27 -27 -26 -26 -26 -25 -25 -24 -23 -23 -22 -22 -22 -22 -22 -21 -21 -21 -22 -21 -21 -21 -20 -20 -20 -19 -19
-26 -26 -26 -26 -26 -26 -25 -26 -26 -26 -27 -28 -27 -27 -27 -28 -28 -28 -27 -27 -26 -26 -26 -25 -25 -24 -24 -23 -23 -23 -22 -22 -22 -22 -22 -22 -22 -22 -21 -21 -21 -20 -20 -20
-27 -26 -27 -26 -27 -27 -26 -26 -27 -28 -28 -28 -28 -27 -28 -28 -28 -28 -28 -28 -27 -27 -27 -27 -27 -26 -26 -25 -24 -24 -23 -23 -23 -23 -23 -23 -23 -22 -22 -22 -21 -21 -20 -20
-28 -28 -28 -27 -28 -28 -26 -27 -28 -29 -29 -29 -29 -28 -28 -28 -28 -28 -28 -28 -28 -28 -28 -28 -27 -27 -26 -26 -26 -25 -25 -24 -24 -24 -24 -24 -23 -23 -22 -22 -22 -22 -21 -21
-28 -29 -29 -29 -29 -28 -27 -27 -28 -29 -29 -29 -29 -28 -29 -29 -29 -29 -28 -28 -29 -29 -29 -28 -28 -28 -27 -27 -27 -26 -26 -25 -25 -25 -25 -25 -24 -24 -24 -23 -23 -22 -22 -21
-29 -30 -30 -30 -29 -28 -28 -28 -29 -30 -28 -29 -29 -29 -29 -30 -31 -30 -30 -31 -30 -30 -30 -30 -30 -29 -29 -28 -28 -27 -27 -26 -25 -25 -25 -25 -25 -25 -25 -24 -23 -23 -22 -22
-30 -30 -30 -30 -30 -29 -28 -29 -30 -30 -29 -31 -31 -31 -31 -31 -31 -31 -31 -31 -32 -33 -33 -32 -32 -32 -31 -30 -30 -29 -28 -27 -27 -26 -26 -25 -25 -25 -25 -25 -24 -24 -23 -22
-30 -30 -31 -31 -32 -30 -29 -30 -31 -32 -32 -32 -32 -32 -32 -31 -32 -32 -32 -32 -33 -35 -36 -35 -35 -34 -34 -33 -32 -31 -30 -29 -28 -27 -26 -26 -25 -26 -25 -25 -25 -24 -24 -23
-31 -31 -31 -32 -32 -31 -31 -31 -32 -33 -32 -32 -32 -32 -32 -32 -33 -33 -33 -33 -35 -37 -37 -36 -36 -36 -35 -35 -35 -34 -33 -31 -30 -28 -27 -27 -26 -26 -26 -25 -25 -25 -24 -24
-31 -32 -33 -33 -32 -32 -33 -33 -33 -33 -33 -33 -33 -33 -33 -32 -33 -34 -34 -34 -35 -36 -37 -36 -36 -36 -36 -36 -36 -35 -35 -35 -32 -31 -30 -29 -28 -27 -27 -26 -25 -25 -24 -24
-32 -33 -33 -33 -32 -33 -33 -34 -34 -33 -33 -33 -34 -33 -34 -33 -34 -34 -35 -35 -35 -36 -36 -37 -36 -36 -36 -36 -36 -36 -35 -35 -35 -34 -32 -30 -29 -28 -27 -27 -26 -25 -24 -24
-32 -33 -33 -33 -32 -33 -33 -34 -34 -34 -34 -34 -34 -34 -34 -35 -35 -35 -35 -35 -36 -36 -36 -37 -37 -37 -36 -36 -36 -36 -36 -36 -36 -35 -34 -33 -31 -30 -28 -27 -27 -25 -25 -24
-33 -33 -33 -33 -33 -34 -33 -34 -34 -35 -35 -35 -35 -35 -36 -36 -36 -36 -36 -36 -36 -36 -36 -37 -37 -37 -37 -37 -37 -37 -37 -36 -36 -36 -35 -34 -33 -31 -29 -28 -27 -26 -25 -25
Height
5682 5681 5680 5677 5677 5675 5674 5673 5672 5668 5667 5668 5665 5664 5664 5663 5663 5663 5663 5666 5669 5673 5677 5680 5683 5687 5691 5695 5699 5703 5706 5707 5711 5715 5718 5719 5723 5726 5729 5733 5736 5739 5742 5742
5676 5675 5673 5671 5670 5669 5667 5666 5665 5663 5663 5663 5661 5660 5660 5660 5659 5659 5659 5660 5662 5665 5668 5671 5674 5678 5682 5686 5690 5694 5697 5698 5701 5704 5709 5712 5715 5717 5721 5725 5729 5732 5731 5736
5668 5668 5665 5663 5663 5662 5659 5659 5657 5656 5656 5656 5656 5655 5655 5656 5656 5655 5655 5654 5656 5657 5661 5663 5667 5670 5673 5676 5680 5684 5687 5689 5692 5694 5698 5701 5705 5708 5711 5716 5721 5725 5727 5729
5661 5659 5657 5656 5655 5654 5652 5651 5649 5648 5648 5649 5650 5647 5649 5650 5650 5651 5650 5650 5651 5652 5654 5655 5658 5661 5664 5666 5670 5673 5677 5680 5682 5685 5687 5691 5695 5698 5701 5706 5713 5717 5719 5722
5653 5651 5649 5648 5647 5644 5645 5643 5642 5641 5639 5639 5642 5640 5641 5643 5643 5644 5645 5645 5646 5647 5648 5649 5650 5652 5654 5657 5660 5664 5667 5671 5673 5675 5678 5681 5685 5689 5692 5696 5702 5707 5708 5712
5643 5642 5641 5639 5637 5635 5635 5635 5633 5631 5630 5629 5634 5633 5633 5635 5637 5636 5637 5638 5638 5639 5641 5642 5643 5645 5646 5648 5650 5654 5657 5660 5664 5666 5669 5671 5675 5679 5683 5685 5690 5696 5700 5702
5635 5633 5632 5630 5628 5626 5626 5625 5623 5622 5620 5621 5622 5622 5627 5626 5627 5629 5629 5630 5631 5631 5632 5634 5636 5637 5638 5640 5642 5644 5647 5650 5653 5656 5659 5661 5665 5669 5673 5676 5679 5684 5688 5691
5624 5625 5623 5622 5619 5617 5616 5616 5614 5610 5612 5611 5611 5613 5617 5618 5619 5620 5621 5621 5622 5623 5623 5624 5625 5627 5629 5631 5633 5635 5637 5640 5643 5646 5649 5653 5655 5659 5662 5666 5669 5672 5677 5680
5611 5613 5612 5610 5608 5607 5607 5605 5605 5600 5600 5599 5601 5604 5608 5609 5610 5611 5611 5612 5612 5613 5613 5614 5615 5617 5619 5621 5623 5625 5628 5631 5633 5635 5638 5641 5645 5649 5652 5655 5659 5662 5666 5670
5600 5598 5601 5599 5597 5596 5594 5594 5592 5590 5587 5587 5590 5592 5595 5598 5598 5598 5599 5600 5600 5601 5602 5603 5605 5607 5608 5609 5612 5614 5617 5620 5623 5626 5628 5630 5634 5636 5640 5644 5647 5651 5655 5660
5588 5586 5590 5586 5585 5583 5581 5580 5579 5578 5575 5574 5576 5581 5584 5584 5585 5585 5584 5585 5586 5587 5588 5590 5591 5594 5596 5598 5600 5603 5605 5608 5612 5614 5617 5621 5623 5625 5629 5632 5636 5640 5644 5648
5575 5570 5573 5573 5571 5569 5568 5567 5566 5562 5564 5562 5561 5569 5571 5570 5569 5568 5568 5569 5569 5571 5572 5574 5576 5578 5581 5585 5588 5590 5593 5596 5599 5604 5606 5609 5612 5615 5617 5620 5625 5629 5633 5637
5562 5558 5558 5558 5558 5557 5555 5554 5552 5549 5547 5547 5546 5556 5554 5555 5555 5554 5552 5552 5552 5554 5555 5558 5560 5563 5566 5570 5573 5576 5579 5582 5585 5589 5593 5597 5600 5602 5606 5608 5612 5617 5621 5626
5547 5546 5545 5544 5542 5541 5542 5540 5537 5534 5533 5532 5535 5536 5539 5536 5536 5536 5536 5536 5537 5538 5539 5541 5545 5547 5549 5553 5556 5560 5563 5567 5571 5574 5579 5583 5587 5590 5593 5596 5600 5604 5609 5614
5534 5533 5531 5529 5527 5527 5529 5525 5522 5521 5520 5517 5527 5521 5525 5521 5517 5515 5515 5516 5518 5520 5520 5523 5526 5528 5531 5534 5538 5542 5546 5550 5554 5558 5562 5567 5572 5577 5580 5583 5586 5591 5595 5601
5520 5518 5518 5517 5514 5514 5517 5509 5510 5509 5507 5504 5505 5507 5509 5506 5501 5503 5502 5501 5503 5504 5505 5506 5508 5510 5513 5516 5518 5522 5526 5530 5534 5539 5544 5549 5555 5561 5566 5569 5572 5577 5581 5587
5508 5505 5503 5501 5500 5500 5503 5502 5497 5493 5494 5491 5489 5496 5489 5488 5484 5482 5483 5484 5485 5484 5484 5486 5488 5491 5493 5497 5499 5503 5506 5510 5515 5521 5526 5532 5538 5544 5550 5555 5559 5563 5568 5574
5495 5492 5488 5486 5486 5486 5492 5489 5482 5478 5478 5475 5472 5477 5475 5468 5464 5461 5469 5464 5462 5461 5462 5463 5465 5468 5472 5476 5478 5482 5485 5490 5496 5502 5508 5514 5520 5526 5533 5539 5545 5550 5555 5561
5483 5478 5474 5471 5470 5474 5481 5477 5466 5455 5467 5456 5451 5453 5451 5448 5439 5450 5447 5440 5435 5434 5433 5435 5439 5445 5450 5454 5454 5460 5464 5470 5475 5482 5488 5495 5502 5509 5517 5523 5528 5535 5542 5548
5471 5467 5462 5459 5455 5456 5469 5461 5450 5440 5444 5444 5434 5435 5434 5431 5426 5433 5428 5421 5414 5410 5407 5408 5413 5416 5424 5430 5428 5436 5442 5447 5451 5460 5466 5474 5483 5491 5499 5507 5513 5519 5527 5534
5458 5453 5449 5446 5438 5440 5450 5443 5434 5428 5431 5424 5421 5419 5419 5417 5410 5413 5411 5405 5398 5394 5392 5391 5394 5396 5400 5403 5406 5414 5417 5425 5426 5437 5443 5451 5460 5470 5478 5488 5496 5503 5511 5519
5447 5441 5438 5430 5425 5421 5428 5423 5419 5415 5409 5408 5407 5404 5403 5401 5397 5394 5393 5389 5384 5383 5382 5381 5380 5382 5386 5385 5385 5392 5395 5400 5403 5413 5420 5428 5438 5447 5457 5467 5478 5487 5495 5504
5433 5430 5422 5415 5415 5410 5402 5405 5402 5397 5394 5392 5391 5390 5384 5384 5381 5379 5378 5375 5372 5370 5370 5370 5368 5368 5370 5371 5371 5374 5380 5377 5382 5390 5396 5404 5414 5423 5434 5446 5457 5468 5478 5488
5419 5412 5403 5396 5409 5395 5388 5387 5381 5379 5378 5376 5372 5370 5366 5364 5363 5362 5361 5360 5358 5356 5355 5356 5355 5356 5358 5360 5358 5360 5362 5360 5364 5368 5373 5380 5391 5400 5410 5423 5435 5448 5459 5471
5404 5394 5389 5380 5388 5375 5377 5368 5366 5362 5358 5356 5354 5351 5347 5345 5345 5344 5344 5343 5341 5339 5339 5339 5339 5339 5342 5344 5343 5342 5343 5344 5346 5348 5352 5358 5366 5377 5388 5401 5413 5427 5441 5453
5384 5377 5368 5364 5365 5355 5357 5349 5347 5342 5339 5337 5336 5335 5330 5327 5327 5325 5326 5324 5322 5321 5321 5321 5320 5320 5323 5325 5325 5325 5324 5324 5326 5329 5333 5337 5342 5353 5365 5379 5393 5407 5421 5434
Wind_Speed
37 36 36 37 35 34 33 32 31 31 30 24 25 21 17 19 24 24 31 34 34 36 38 40 42 41 41 42 40 40 40 41 38 37 38 41 43 46 43 38 37 34 38 34
39 37 39 38 37 36 36 35 34 34 31 29 28 27 20 17 18 20 21 28 37 38 38 41 43 43 44 42 38 36 36 40 39 39 36 37 41 44 43 41 36 33 36 39
40 38 40 40 38 39 39 35 36 37 36 34 32 31 28 24 22 20 18 20 23 30 40 40 41 43 45 45 42 37 36 37 38 39 39 39 39 43 42 41 37 36 36 38
41 40 41 40 38 37 38 38 38 39 39 38 37 39 34 31 28 25 22 19 18 25 28 35 42 42 43 47 43 40 37 36 38 40 41 41 41 42 44 45 40 38 33 36
40 40 41 40 40 41 40 40 40 41 43 44 41 41 37 34 34 30 28 26 24 21 22 29 32 34 39 44 44 40 38 40 39 39 41 42 41 41 44 46 47 46 40 40
43 44 44 43 43 43 42 42 43 44 46 47 41 41 40 37 36 35 32 30 30 28 27 24 27 34 36 37 39 45 41 41 41 41 41 43 42 40 44 45 47 48 50 42
45 43 43 42 41 41 41 41 43 45 47 47 44 45 39 37 35 34 32 30 29 29 31 31 30 28 30 37 38 41 43 41 42 44 44 43 41 41 44 48 50 48 50 55
47 45 44 43 41 42 41 43 44 46 47 48 47 45 41 38 34 32 30 29 29 28 27 29 31 32 33 32 34 40 41 43 44 45 46 45 44 43 43 44 51 51 51 54
48 47 45 45 44 43 42 43 43 46 48 49 49 46 43 40 40 38 36 34 33 33 32 30 30 29 34 35 36 35 39 44 45 47 49 48 47 46 46 44 47 52 53 53
48 48 45 46 47 47 46 42 44 46 48 50 51 50 48 45 45 44 43 41 40 39 39 39 38 36 35 34 35 38 38 38 44 47 49 52 51 50 49 49 47 47 50 55
48 49 47 46 47 45 47 47 47 48 51 52 53 52 51 51 50 49 49 49 48 47 46 45 44 44 43 43 40 38 39 41 40 42 48 50 52 54 53 51 51 50 47 47
46 47 44 44 44 44 45 46 48 50 51 52 54 53 52 54 55 55 54 54 53 52 50 48 48 48 48 48 48 46 45 41 42 45 46 48 52 54 55 55 53 53 51 49
44 47 44 44 44 44 45 46 49 50 53 55 56 54 55 54 55 55 54 54 55 56 55 55 55 54 54 54 53 53 52 51 48 43 48 50 49 53 56 56 56 55 54 52
47 46 44 45 47 48 48 49 51 53 55 56 56 54 53 55 56 56 56 57 58 59 60 60 60 60 60 59 59 59 59 57 54 52 46 50 53 51 53 57 56 57 56 54
48 48 48 49 49 50 50 53 55 55 52 54 50 52 50 50 54 58 60 60 62 62 64 66 67 66 65 64 65 65 64 61 58 57 54 52 54 54 53 54 56 56 58 56
48 50 49 50 50 50 49 53 52 50 51 54 53 54 52 54 59 60 63 64 64 64 64 65 65 65 66 65 66 67 67 64 62 60 58 56 59 58 54 54 55 54 56 57
48 48 49 50 49 49 51 48 50 51 50 53 57 55 59 61 64 65 66 67 68 69 69 69 69 68 67 67 67 66 67 66 64 62 61 60 62 60 59 56 55 53 53 55
48 48 50 50 48 50 47 49 52 53 55 58 60 59 61 65 69 72 73 75 76 76 76 76 76 74 74 72 70 69 69 69 67 65 63 63 64 62 58 60 57 57 51 51
46 46 47 48 49 50 47 48 53 59 58 64 64 65 66 63 60 59 54 61 70 74 76 77 79 78 78 77 78 75 73 72 72 69 68 70 70 69 63 59 59 60 55 51
44 44 47 48 50 54 48 50 57 60 64 54 58 56 48 43 49 48 51 51 56 60 64 68 68 71 74 76 78 79 78 76 76 74 71 72 75 75 68 64 59 58 59 54
45 46 48 50 54 59 52 54 51 54 52 53 50 49 48 51 55 51 50 50 47 46 46 49 52 57 59 61 68 74 77 78 80 78 77 74 74 72 78 70 63 59 58 56
46 49 49 51 56 62 56 53 50 51 53 50 48 53 52 54 53 49 47 46 42 38 39 41 43 48 51 53 57 61 67 72 79 81 81 79 76 74 70 73 68 62 59 57
49 48 50 58 59 55 51 48 51 56 55 56 55 56 58 57 56 50 45 44 42 44 43 38 40 42 46 48 50 50 51 58 70 77 79 79 77 76 73 75 77 73 67 63
49 53 57 56 46 50 53 53 55 58 60 61 62 62 63 63 59 54 49 47 44 44 47 49 50 46 46 48 54 57 58 61 61 68 77 80 77 77 76 71 74 73 71 70
50 53 54 58 53 58 56 59 59 60 62 63 64 65 66 63 58 55 53 50 49 45 43 50 54 53 52 51 52 55 57 59 60 63 66 72 80 80 76 74 71 73 72 76
55 58 61 62 59 64 62 66 66 67 68 68 68 65 61 57 55 56 53 52 52 53 52 49 49 50 55 58 60 60 58 59 58 57 58 59 62 73 80 75 72 73 74 77
Wind_Direction
284 282 284 284 287 288 288 289 290 284 287 291 292 295 301 287 281 258 251 246 245 246 248 248 247 246 247 248 249 249 246 248 251 251 250 250 249 248 248 256 249 240 243 247
281 281 281 283 283 284 285 285 284 279 282 284 285 285 286 287 291 284 263 250 243 241 244 245 247 246 245 244 245 246 246 248 250 250 247 250 248 249 250 251 252 247 246 253
278 279 279 278 280 282 282 282 278 276 278 281 282 279 277 276 276 279 281 266 254 249 242 243 245 248 246 245 245 243 242 246 247 248 246 245 245 245 244 244 243 241 249 259
279 278 278 278 280 278 278 280 277 275 277 277 279 280 273 274 274 271 271 272 269 255 248 245 244 243 248 245 244 243 239 241 245 245 246 243 243 241 240 239 237 235 244 255
281 280 279 279 277 277 277 275 273 272 273 275 277 277 273 273 273 268 265 264 266 264 260 253 249 248 247 244 243 241 242 241 242 244 246 246 242 240 240 241 237 238 241 239
279 279 280 278 277 276 276 276 275 274 273 275 277 274 274 275 271 267 263 261 258 258 259 259 255 251 251 250 248 243 241 238 239 243 245 247 245 242 241 240 241 234 237 240
282 281 281 279 277 277 277 275 274 273 273 277 276 274 276 273 267 263 260 258 258 258 255 255 254 253 254 252 253 251 246 237 237 240 244 245 245 243 242 240 243 234 233 237
284 283 281 280 278 276 273 272 272 274 276 275 273 272 273 271 266 260 256 257 258 257 257 255 255 254 253 255 254 252 254 250 238 238 240 244 245 243 244 245 241 239 234 238
285 283 281 281 282 280 277 273 272 271 271 270 272 274 271 268 268 265 261 256 255 257 257 257 258 258 254 252 254 254 252 250 253 249 241 240 240 243 244 245 246 243 241 241
284 282 280 281 281 280 279 275 272 271 270 270 270 270 271 269 268 266 264 263 261 257 258 259 260 259 258 256 252 253 254 254 250 251 253 247 243 239 241 244 247 248 245 242
285 284 285 282 280 277 275 274 271 269 268 269 269 269 270 270 267 265 264 264 263 262 260 258 258 259 261 260 261 258 255 253 253 253 252 251 252 246 241 241 244 248 249 247
284 283 282 279 276 274 273 273 272 270 270 270 269 269 270 269 269 267 265 263 262 261 259 258 256 255 257 260 262 264 264 264 259 254 255 253 250 251 249 244 242 245 248 250
279 278 277 275 273 271 270 269 269 268 268 268 267 275 271 268 266 265 266 267 266 264 261 258 256 255 255 258 260 262 265 266 265 264 256 253 253 250 249 249 246 243 246 249
275 274 273 271 269 268 267 267 267 267 268 269 269 269 272 273 270 267 266 264 263 262 262 262 260 258 257 257 259 261 262 263 263 264 266 256 252 251 249 248 247 246 245 247
274 272 271 270 270 270 270 272 273 272 271 272 275 272 270 271 271 268 266 264 262 261 260 259 259 258 257 257 258 259 260 260 259 260 261 258 253 249 249 249 246 245 245 244
275 275 275 274 274 273 271 273 273 275 274 273 274 272 275 271 270 270 271 271 271 269 267 265 262 260 259 258 256 255 254 255 257 258 258 256 251 244 243 245 247 245 244 244
278 278 277 274 273 272 272 275 274 273 277 277 275 276 273 275 274 272 269 267 266 265 265 265 263 262 260 259 257 255 255 254 254 253 252 250 248 245 238 241 244 244 244 243
280 279 277 276 275 271 274 274 278 280 276 277 276 276 275 275 274 272 273 274 272 270 267 264 262 260 260 259 258 256 255 253 252 250 249 247 245 243 241 239 240 242 241 241
281 279 278 277 277 277 277 282 283 284 278 283 284 282 280 282 284 285 287 280 274 271 268 266 264 262 260 259 258 256 254 252 251 248 245 244 244 247 242 237 234 238 238 239
279 277 278 281 282 281 282 282 285 284 284 280 280 283 283 278 286 295 291 294 286 272 266 263 262 262 259 257 257 256 255 254 251 248 245 241 242 242 241 240 235 233 235 236
280 282 283 284 285 282 285 288 282 278 286 280 279 281 283 285 287 290 289 291 292 282 274 269 266 261 258 255 255 254 253 253 253 249 248 245 242 242 240 234 235 234 232 233
283 284 285 283 282 287 291 285 281 281 280 278 278 282 284 287 287 288 288 291 286 271 269 266 267 264 258 257 256 254 253 252 251 249 248 248 245 243 239 231 233 235 235 232
285 283 283 282 286 289 286 282 277 276 276 276 279 281 283 286 288 287 282 283 279 270 260 262 264 259 253 255 256 257 259 259 254 251 250 248 245 243 240 235 234 238 235 234
282 283 284 282 285 277 276 279 276 275 276 277 279 281 283 286 287 286 282 276 276 268 263 261 259 264 260 259 257 257 257 258 259 257 253 250 247 244 240 237 234 234 233 233
285 285 285 281 285 278 279 277 275 273 273 274 276 278 281 283 283 283 281 276 269 271 269 265 264 264 263 261 262 263 264 265 264 260 257 254 250 245 240 237 234 231 230 231
288 285 283 284 281 279 278 275 274 273 273 273 275 277 281 283 283 281 278 274 272 269 269 267 268 266 263 263 264 265 264 265 266 264 260 254 248 246 242 235 232 230 228 229